Regional Weather Roundup
Issued by NWS Charleston, SC

Current Version | Previous Version | Text Only | Print | Product List | Glossary Off
Versions: 1 2 3 4 5 6 7 8 9 10 11 12 13 14 15 16 17 18 19 20 21 22 23 24 25 26 27 28 29 30 31 32 33 34 35 36 37 38 39 40 41 42 43 44 45 46 47 48 49 50
000 ASUS42 KCHS 232213 RWRCHS REGIONAL WEATHER ROUNDUP NATIONAL WEATHER SERVICE CHARLESTON SC 600 PM EDT SAT JUL 23 2016 NOTE: "FAIR" INDICATES FEW OR NO CLOUDS BELOW 12,000 FEET WITH NO SIGNIFICANT WEATHER AND/OR OBSTRUCTIONS TO VISIBILITY. NOT ALL STATIONS ARE QUALITY CONTROLLED. USE DATA WITH CAUTION... ESPECIALLY DEWPOINT OBSERVATIONS. SCZ027-030-031-034>040-042>050-232300- ...SOUTHEAST SOUTH CAROLINA... CITY SKY/WX TMP DP RH WIND PRES REMARKS N CHARLESTON MOSUNNY 92 72 51 S10 29.96F HX 99 WATERFRONT PRK N/A 88 76 67 S9 29.95F HX 99 MOUNT PLEASANT FAIR 90 75 62 S9 29.97F HX 100 JOHNS ISLAND FAIR 90 77 66 S14 29.98S HX 102 PINOPOLIS N/A 91 75 59 S7 29.87F HX 102 MONCKS CORNER FAIR 88 70 55 S6 29.96S HX 92 SUMMERVILLE FAIR 93 77 59 S6 29.97R HX 107 BEAUFORT MCAS MOSUNNY 92 76 59 SE6 29.97S HX 104 BEAUFORT ARPT FAIR 90 72 55 S12 29.97S HX 96 HILTON HEAD IS MOSUNNY 95 75 52 S12 29.99S HX 107 WALTERBORO PTCLDY 95 70 43 S7 29.96F HX 101 ALLENDALE FAIR 95 70 43 VRB3 29.94F HX 101 ...SOUTHERN MIDLANDS AND PEE DEE... CITY SKY/WX TMP DP RH WIND PRES REMARKS GEORGETOWN FAIR 86 77 74 S8 29.99S HX 97 KINGSTREE FAIR 90 73 58 SE8 29.96S HX 98 ORANGEBURG MOSUNNY 93 70 46 SW6 29.95F HX 99 BARNWELL NOT AVBL AIKEN FAIR 88 73 62 N6 30.00F HX 96 MANNING FAIR 91 70 49 SW5 29.95F HX 97 COLUMBIA PTSUNNY 81 71 71 CALM 29.95F THUNDER SUMTER MOSUNNY 93 72 49 NW14 29.94S HAZE HX 100 FLORENCE PTSUNNY 93 71 48 SW8 29.94F HX 100 MYRTLE BEACH MOSUNNY 84 72 65 S14 30.00R N MYRTLE BEACH PTSUNNY 83 72 69 W8 29.99R $$ GAZ063-065-086>088-099>101-113>116-118-119-134>141-150-232300- ...SOUTHEAST GEORGIA... CITY SKY/WX TMP DP RH WIND PRES REMARKS SAVANNAH ARPT CLOUDY 90 72 55 E8 29.97R THUNDER HX 97 HUNTER AAF SUNNY 89 76 64 S9 29.95S HX 101 FORT STEWART SUNNY 93 74 53 SE10 29.93S HX 102 STATESBORO MOSUNNY 94 75 54 CALM 29.95F HX 105 SYLVANIA NOT AVBL CLAXTON MOCLDY 89 73 59 W3 29.97R HX 97 ...CSRA...CENTRAL AND FAR SOUTHEAST GEORGIA... CITY SKY/WX TMP DP RH WIND PRES REMARKS THOMSON NOT AVBL AUGUSTA-BUSH MOSUNNY 95 70 44 S7 29.94F HX 101 AUGUSTA-DANIEL CLOUDY 91 73 55 NW8 29.97F HX 99 SWAINSBORO MOCLDY 79 72 78 NW9G17 29.99S VIDALIA LGT RAIN 88 72 58 S3 29.98S HX 94 EASTMAN RAIN 82 66 59 N8 30.01R HAZLEHURST LGT RAIN 77 73 88 CALM 29.99S ALMA MOSUNNY 95 68 41 S5 29.96S HX 99 WAYCROSS SUNNY 99 65 32 S7 29.96S HX 103 JESUP FAIR 95 75 52 SW7 29.96S HX 107 BAXLEY PTSUNNY 90 73 58 N13G21 29.97R HX 98 BRUNSWICK SUNNY 93 70 46 SE10 29.98F HX 99 SAINT SIMONS SUNNY 89 72 56 SE12 29.97F HX 96 $$ SCZ027-028-034-036>038-045-046-048>050-GAZ119-141-232300- ...LAKE AND SUPPLEMENTAL COASTAL OBSERVATIONS... STATION/POSITION TIME TEMP WIND PRES WAVE SWELL AIR SEA DIR/SP/G HT/PER HT/PER/DIR (UTC) (F) (DEG/KT/KT) (MB) (FT/S) (FT/S/D) WINYAH BAY 2045 87 230/ 9 1014.0 LAKE MURRAY 2100 86 50/ 1/ 6 1014.9R ACE BASIN NERRS NOT AVBL FORT PULASKI 2100 89 88 160/ 9/ 13 1015.6F SAPELO ISLAND 2100 92 150/ 11 1015.0F $$ ANZ835-935-AMZ111-154-330-350-352-354-370-450-454-472-232300- ...C-MAN AND BUOY OBSERVATIONS... STATION/POSITION TIME TEMP WIND PRES WAVE SWELL AIR SEA DIR/SP/G HT/PER HT/PER/DIR (UTC) (F) (DEG/KT/KT) (MB) (FT/S) (FT/S/D) BUOY 41004 2150 85 87 180/ 8/ 10 1015.1F 2/ 8 2/130/ 8 BUOY 41008 2150 85 88 160/ 12/ 14 1015.3F 2/ 8 2/110/ 8 FOLLY BEACH CMAN 2200 86 180/ 12/ 14 1015.3F CAPERS NEARSHORE 2108 85 86 190/ 12/ 16 1015.1F FRIPP NEARSHORE 2108 86 88 180/ 14/ 16 1014.7F STATION/POSITION TIME TEMP WIND PRES WAVE SWELL AIR SEA DIR/SP/G HT/PER HT/PER/DIR (UTC) (F) (DEG/KT/KT) (MB) (FT/S) (FT/S/D) 5E ST. MARYS GA 2101 88 N/A 2/ 8 FRYING PAN BUOY 2100 84 86 170/ 8/ 10 1015.4F BUOY 41025 2150 85 86 220/ 14/ 14 1014.8F 2/ 8 2/140/ 8 CAPE LOOKOUT NC 2200 85 200/ 11/ 12 1014.9F BUOY 41002 2150 83 87 100/ 4/ 6 1016.0F 3/ 9 3/110/ 9 BUOY 41010 2120 85 88 30/ 4/ 6 1016.4S ST AUGUSTINE FL 2200 85 89 140/ 12/ 13 1016.5F $$

USA.gov is the U.S. government's official web portal to all federal, state and local government web resources and services.